Station PCXA2 - Point Craven MXAK, AK Image indicating link to RSS feed of recent meteorological observations for station PCXA2


Conditions at PCXA2 as of
(5:13 pm AKDT on 05/27/2024)
0113 GMT on 05/28/2024:
     

Click on the graph icon in the table below to see a time series plot of the last five days of that observation.

5-day plot - Wind Direction Wind Direction (WDIR): SE ( 130 deg true )
5-day plot - Wind Speed Wind Speed (WSPD): 11 kts
5-day plot - Wind Gust Wind Gust (GST): 15 kts
5-day plot - Atmospheric Pressure Atmospheric Pressure (PRES):29.88 in
5-day plot - Air Temperature Air Temperature (ATMP): 47.3 °F
5-day plot - Dew Point Dew Point (DEWP): 43.7 °F
5-day plot - Wind Chill Wind Chill (CHILL): 41.7 °F
5-day plot - Wind Speed at 10 Meters Wind Speed at 10 meters (WSPD10M): 12 kts
5-day plot - Wind Speed at 20 Meters Wind Speed at 20 meters (WSPD20M): 14 kts
5-day plot -  Wind Speed, Wind Gust and Atmospheric Pressure Combined plot of Wind Speed, Gust, and Air Pressure
Previous observations
TIME
(AKDT)
5-day plot - Wind Direction
WDIR
 
5-day plot - Wind Speed
WSPD
kts
5-day plot - Wind Gust
GST
kts
5-day plot - Wave Height
WVHT
ft
5-day plot - Dominant Wave Period
DPD
sec
5-day plot - Average Wave Period
APD
sec
5-day plot - Mean Wave Direction
MWD
 
5-day plot - Atmospheric Pressure
PRES
in
5-day plot - Pressure Tendency
PTDY
in
5-day plot - Air Temperature
ATMP
°F
5-day plot - Water Temperature
WTMP
°F
5-day plot - Dew Point
DEWP
°F
5-day plot - Salinity
SAL
psu
5-day plot - Visibility
VIS
nmi
5-day plot - Tide (above MLLW)
TIDE
ft
2024-05-27 05:03 pmSSE 10 13----29.88- 47.5- 43.0---
2024-05-27 04:53 pmSSE 12 16----29.88- 47.8- 43.7---
2024-05-27 04:43 pm SE 14 19----29.87- 48.9- 43.0---
2024-05-27 04:33 pmESE 4 10----29.87- 50.5- 42.3---
2024-05-27 04:23 pm SE 2 4----29.87- 50.5- 41.9---
2024-05-27 04:13 pm E 2 3----29.86- 50.2- 41.5---
2024-05-27 03:53 pmESE 3 6----29.87- 51.8- 41.9---
2024-05-27 03:43 pm SE 4 7----29.86- 50.5- 42.8---
2024-05-27 03:33 pm S 2 3----29.86- 50.5- 43.3---
2024-05-27 03:23 pm SE 2 4----29.86- 50.7- 42.1---
2024-05-27 03:13 pmESE 3 5----29.86- 51.1- 41.7---
2024-05-27 03:03 pmESE 4 6----29.86- 50.9- 41.5---
2024-05-27 02:53 pmESE 4 7----29.86- 50.9- 42.1---
2024-05-27 02:44 pmESE 4 5----29.86- 49.8- 43.9---
2024-05-27 02:34 pm E 4 5----29.86- 48.6- 43.5---
2024-05-27 02:23 pm E 4 6----29.86- 49.5- 42.3---
2024-05-27 02:13 pmESE 5 8----29.86- 51.1- 41.9---
2024-05-27 02:03 pm SE 6 9----29.86- 51.4- 42.1---
2024-05-27 01:53 pmESE 6 8----29.85- 51.6- 42.4---
2024-05-27 01:43 pmESE 4 6----29.85- 51.4- 43.2---
2024-05-27 01:33 pmESE 4 6----29.85- 50.9- 43.5---
2024-05-27 01:23 pmESE 4 6----29.85- 50.2- 43.0---
2024-05-27 01:13 pmESE 4 7----29.85- 49.3- 42.8---
2024-05-27 01:03 pm E 3 6----29.85- 48.6- 41.9---
2024-05-27 12:53 pm E 2 4----29.85- 48.9- 42.3---
2024-05-27 12:43 pmESE 2 4----29.85- 48.7- 42.6---
2024-05-27 12:33 pmESE 2 5----29.85- 48.9- 43.7---
2024-05-27 12:23 pmENE 2 4----29.85- 50.0- 43.3---
2024-05-27 12:13 pmENE 2 3----29.85- 49.6- 43.2---
2024-05-27 12:03 pmENE 3 6----29.84- 48.9- 43.0---
2024-05-27 11:54 amENE 4 6----29.84- 49.3- 42.8---
2024-05-27 11:43 amENE 3 5----29.84- 49.8- 43.7---
2024-05-27 11:33 am NE 4 5----29.84- 49.5- 43.9---
2024-05-27 11:23 amNNE 4 6----29.84- 49.1- 43.5---
2024-05-27 11:13 am NE 4 5----29.84- 48.9- 43.2---
2024-05-27 11:03 am NE 3 5----29.84- 48.4- 42.4---
2024-05-27 10:53 am NE 3 6----29.84- 48.2- 41.9---
2024-05-27 10:43 am NE 1 3----29.83- 48.4- 42.6---
2024-05-27 10:33 amENE 3 5----29.83- 47.8- 42.4---
2024-05-27 10:23 amENE 1 5----29.83- 47.7- 42.8---
2024-05-27 10:13 am- 0 2----29.83- 47.3- 43.0---
2024-05-27 10:03 amESE 2 5----29.83- 46.8- 42.6---
2024-05-27 09:53 am SE 1 4----29.83- 46.8- 43.2---
2024-05-27 09:43 amENE 1 4----29.83- 46.8- 43.7---
2024-05-27 09:33 am E 2 5----29.83- 46.6- 43.7---
2024-05-27 09:23 amENE 6 8----29.82- 46.9- 44.1---
2024-05-27 09:13 am NE 8 10----29.82- 46.8- 43.9---
2024-05-27 09:03 am NE 7 10----29.82- 46.6- 44.1---
2024-05-27 08:53 am NE 5 7----29.82- 46.6- 44.1---
2024-05-27 08:44 am NE 7 9----29.81- 46.6- 44.2---
2024-05-27 08:34 am NE 6 9----29.81- 46.6- 44.4---
2024-05-27 08:23 amNNE 4 5----29.81- 46.2- 44.1---
2024-05-27 08:13 am N 4 5----29.81- 46.0- 44.1---
2024-05-27 08:03 amNNE 4 5----29.81- 45.9- 44.1---
2024-05-27 07:53 amNNE 5 6----29.82- 45.7- 43.9---
2024-05-27 07:43 amNNE 5 8----29.82- 45.5- 44.1---
2024-05-27 07:33 am N 3 7----29.82- 45.3- 43.9---
2024-05-27 07:23 am N 4 7----29.82- 45.3- 43.7---
2024-05-27 07:13 amNNE 6 9----29.82- 45.1- 43.5---
2024-05-27 07:03 am N 5 7----29.82- 45.1- 43.5---
2024-05-27 06:53 am N 2 7----29.81- 45.3- 43.7---
2024-05-27 06:43 am N 2 4----29.81- 45.3- 43.7---
2024-05-27 06:33 amNNE 2 4----29.81- 45.3- 43.7---
2024-05-27 06:23 amENE 2 2----29.81- 45.1- 43.3---
2024-05-27 06:13 am E 2 3----29.81- 45.0- 43.2---
2024-05-27 06:04 amENE 2 3----29.81- 45.0- 43.0---
2024-05-27 05:53 am E 2 4----29.81- 44.8- 42.8---
2024-05-27 05:43 amESE 3 4----29.81- 44.8- 43.0---
2024-05-27 05:33 amESE 3 5----29.81- 45.0- 43.2---
2024-05-27 05:23 am E 2 4----29.80- 44.8- 43.3---
2024-05-27 05:13 am- 0 2----29.80- 44.8- 43.3---
2024-05-27 05:03 am SW 2 3----29.80- 44.8- 43.2---
2024-05-27 04:53 am SE 2 4----29.80- 44.6- 43.2---
2024-05-27 04:43 am S 2 3----29.80- 44.6- 43.3---
2024-05-27 04:33 am S 2 4----29.80- 44.6- 43.5---
2024-05-27 04:23 am S 2 3----29.80- 44.8- 43.7---
2024-05-27 04:13 am S 3 4----29.80- 44.6- 43.7---
2024-05-27 04:03 am S 4 5----29.80- 44.6- 43.9---
2024-05-27 03:53 am SE 4 5----29.80- 44.6- 44.2---
2024-05-27 03:43 am SE 6 9----29.80- 44.8- 44.4---
2024-05-27 03:33 amESE 4 8----29.80- 44.8- 44.6---
2024-05-27 03:23 amESE 2 4----29.79- 44.8- 44.6---
2024-05-27 03:13 amSSE 2 4----29.79- 44.8- 44.8---
2024-05-27 03:03 am S 3 5----29.79- 44.6- 44.6---
2024-05-27 02:53 am SE 4 6----29.79- 44.6- 44.6---
2024-05-27 02:43 am SE 4 7----29.79- 44.4- 44.4---
2024-05-27 02:33 am SE 3 5----29.79- 44.4- 44.4---
2024-05-27 02:23 am SE 4 6----29.79- 44.4- 44.4---
2024-05-27 02:13 amSSE 5 7----29.79- 44.6- 44.6---
2024-05-27 02:03 amSSE 6 8----29.79- 44.4- 44.4---
2024-05-27 01:53 am SE 8 12----29.79- 44.4- 44.4---
2024-05-27 01:33 am SE 9 13----29.78- 44.2- 43.9---
2024-05-27 01:23 amSSE 11 14----29.78- 44.6- 43.7---
2024-05-27 01:13 amSSE 7 11----29.78- 45.0- 43.9---
2024-05-27 01:03 amSSE 8 11----29.78- 45.0- 44.1---
2024-05-27 12:53 am SE 8 12----29.77- 45.0- 44.1---
2024-05-27 12:43 am SE 6 9----29.77- 44.8- 44.1---
2024-05-27 12:33 am SE 7 10----29.77- 44.8- 44.1---
2024-05-27 12:23 am SE 7 11----29.77- 44.8- 44.1---
2024-05-27 12:14 am SE 7 9----29.76- 44.8- 44.1---
2024-05-27 12:03 am SE 8 10----29.76- 45.0- 44.1---
2024-05-26 11:53 pm SE 5 8----29.76- 45.0- 43.9---
2024-05-26 11:43 pm SE 5 8----29.76- 45.1- 44.1---
2024-05-26 11:33 pmESE 5 7----29.75- 45.3- 43.9---
2024-05-26 11:23 pmSSE 6 8----29.75- 45.5- 43.9---
2024-05-26 11:13 pmSSE 6 7----29.75- 45.3- 44.2---
2024-05-26 11:03 pm SE 5 8----29.75- 45.3- 44.4---
2024-05-26 10:53 pm SE 5 8----29.75- 45.3- 44.6---
2024-05-26 10:43 pm SE 4 6----29.74- 45.3- 44.2---
2024-05-26 10:33 pmSSE 4 6----29.74- 45.7- 44.2---
2024-05-26 10:23 pmSSE 5 7----29.74- 45.9- 44.4---
2024-05-26 10:13 pm SE 6 9----29.73- 45.5- 44.4---
2024-05-26 10:03 pm SE 6 10----29.73- 45.5- 44.4---
2024-05-26 09:53 pmESE 6 10----29.73- 45.5- 44.2---
2024-05-26 09:43 pmESE 5 8----29.72- 45.5- 44.2---
2024-05-26 09:33 pmESE 5 8----29.72- 45.9- 44.2---
2024-05-26 09:23 pm SE 5 8----29.72- 45.9- 44.1---
2024-05-26 09:13 pmESE 5 8----29.72- 46.0- 43.9---
2024-05-26 09:03 pm E 3 6----29.72- 46.9- 43.3---
2024-05-26 08:53 pmSSW 1 2----29.72- 46.9- 43.3---
2024-05-26 08:43 pmWSW 2 3----29.71- 46.8- 43.9---
2024-05-26 08:33 pm S 4 7----29.71- 46.8- 43.5---
2024-05-26 08:23 pm SE 7 10----29.71- 46.8- 43.0---
2024-05-26 08:13 pm SE 7 11----29.71- 46.8- 42.6---
2024-05-26 08:03 pmESE 6 11----29.71- 47.1- 42.4---
2024-05-26 07:53 pmESE 3 5----29.71- 47.5- 42.4---
2024-05-26 07:43 pmESE 2 4----29.71- 48.0- 42.1---
2024-05-26 07:33 pm SW 2 3----29.70- 47.8- 41.9---
2024-05-26 07:23 pm S 3 4----29.70- 47.8- 42.1---
2024-05-26 07:13 pmSSE 5 9----29.70- 47.8- 41.9---
2024-05-26 07:03 pmSSE 7 9----29.70- 47.8- 41.5---
2024-05-26 06:53 pmSSE 8 10----29.70- 47.8- 41.4---
2024-05-26 06:43 pm SE 7 10----29.70- 47.7- 41.4---
2024-05-26 06:33 pm SE 7 9----29.70- 47.7- 41.7---
2024-05-26 06:23 pm SE 6 8----29.70- 47.7- 42.4---
2024-05-26 06:13 pmSSE 5 7----29.70- 48.0- 43.0---
2024-05-26 06:03 pmSSE 6 7----29.70- 48.0- 42.8---
2024-05-26 05:53 pm SE 6 8----29.70- 48.7- 43.2---
2024-05-26 05:43 pm SE 6 7----29.70- 48.4- 42.8---
2024-05-26 05:34 pm SE 5 7----29.70- 48.4- 42.6---
2024-05-26 05:23 pmSSE 4 7----29.70- 47.7- 42.4---
2024-05-26 05:13 pm SE 6 9----29.70- 47.7- 42.4---
2024-05-26 05:03 pm SE 6 9----29.70- 48.0- 42.6---
2024-05-26 04:53 pm SE 8 11----29.70- 48.6- 42.3---